Regional Weather Roundup
Issued by NWS Sterling, VA

Home | Current Version | Previous Version | Text Only | Print | Product List | Glossary Off
Versions: 1 2 3 4 5 6 7 8 9 10 11 12 13 14 15 16 17 18 19 20 21 22 23 24 25 26 27 28 29 30 31 32 33 34 35 36 37 38 39 40 41 42 43 44 45 46 47 48 49 50

000
ASUS41 KLWX 281410
RWRLWX

REGIONAL WEATHER ROUNDUP
NATIONAL WEATHER SERVICE BALTIMORE MD/WASHINGTON DC
1000 AM EDT MON JUL 28 2014

Note: "FAIR" indicates few or no clouds below 12,000 feet
with no significant weather and/or obstructions to visibility.
 TC=TEMPERATURE CELSIUS

 * =Non NWS site. Station does not report precipitation (e.g. rain,
    snow, etc.), thunder, or fog.

DCZ001-MDZ009-015-VAZ040>042-051-053>054-281500-
WASHINGTON METRO
  /KDAA//-FT BELVOIR

CITY           SKY/WX    TMP DP  RH WIND       PRES   REMARKS
WASHINGTON NAT PTSUNNY   83  60  45 NW22G30   29.65R
DULLES         PTSUNNY   76  60  57 NW15      29.68R
ANDREWS AFB    MOSUNNY   82  64  55 NW20G25   29.64R
QUANTICO       MOSUNNY   83  63  50 NW14      29.66R
COLLEGE PARK*  MOSUNNY   81  61  50 W14G24    29.64R
LEESBURG*      PTSUNNY   75  63  64 NW20G26   29.68R
GAITHERSBURG*  PTSUNNY   77  63  61 W22G28    29.69R

$$

MDZ006>007-011-014-281500-
BALTIMORE METRO

CITY           SKY/WX    TMP DP  RH WIND       PRES   REMARKS
BWI AIRPORT    MOSUNNY   80  62  54 W18G28    29.62R
MD SCIENCE CTR   N/A     81  62  52 MISG      29.62R
MARTIN STATE   MOSUNNY   81  66  61 W21G29    29.63R
ANNAPOLIS      MOSUNNY   81  63  54 W12G21    29.62R
FORT MEADE*    SUNNY     79  63  57 W13G25    29.65R

$$

MDZ012-015-019>023-281500-
MARYLAND EASTERN SHORE

CITY           SKY/WX    TMP DP  RH WIND       PRES   REMARKS
OCEAN CITY     SUNNY     85  73  67 W8G16     29.61F HX  91
SALISBURY      NOT AVBL
BAY BRIDGE AP*   N/A     81  63  54 W15       29.62R
CAMBRIDGE*     SUNNY     82  66  57 W9G17     29.62S
EASTON*        MOSUNNY   84  72  65 W10G17    29.66R

$$

MDZ017>025-281500-
SOUTHERN MARYLAND

CITY           SKY/WX    TMP DP  RH WIND       PRES   REMARKS
PATUXENT RIVER MOSUNNY   83  65  54 W14       29.63S
ST INIGOES     SUNNY     83  66  56 W13       29.63S
LEONARDTOWN*   SUNNY     81  64  57 W15       29.66R

$$

MDZ003>005-281500-
NORTH CENTRAL MARYLAND

CITY           SKY/WX    TMP DP  RH WIND       PRES   REMARKS
FREDERICK*     PTSUNNY   79  66  65 NW13      29.68R
HAGERSTOWN APT MOSUNNY   74  58  57 W21G28    29.67R
WESTMINSTER*   MOSUNNY   73  64  73 NW14G21   29.67R

$$

MDZ501>502-281500-
WESTERN MARYLAND

CITY           SKY/WX    TMP DP  RH WIND       PRES   REMARKS
OAKLAND*       CLOUDY    57 N/A N/A W15G21    29.79R
CUMBERLAND*    MOSUNNY   73  59  60 NW5       29.75R

$$

VAZ025>031-281500-
SHENANDOAH VALLEY

CITY           SKY/WX    TMP DP  RH WIND       PRES   REMARKS
WINCHESTER*    MOSUNNY   73  59  60 W18G28    29.69S
STAUNTON*      MOSUNNY   77  56  48 W9G20     29.76R

$$

WVZ021-048>050-054>055-281500-
EASTERN WEST VIRGINIA PANHANDLE

CITY           SKY/WX    TMP DP  RH WIND       PRES   REMARKS
MARTINSBURG    MOSUNNY   77  58  51 W15G23    29.68R
PETERSBURG*    MOSUNNY   72  51  47 W15G23    29.74R

$$

VAZ036>039-050-281500-
CENTRAL FOOTHILLS

CITY           SKY/WX    TMP DP  RH WIND       PRES   REMARKS
CHARLOTTESVILL SUNNY     79  58  48 VRB6G21   29.69S
ORANGE*        PTSUNNY   79  61  53 SW8       29.70R

$$

VAZ055>057-281500-
NORTH AND CENTRAL PIEDMONT

CITY           SKY/WX    TMP DP  RH WIND       PRES   REMARKS
FREDERICKSBRG* SUNNY     83  65  54 W12G17    29.65S
STAFFORD*      SUNNY     81  64  56 W9G17     29.70R

$$

NCZ024-NYZ072-PAZ021-071-VAZ022-071-281500-
OTHER REGIONAL OBSERVATIONS

CITY           SKY/WX    TMP DP  RH WIND       PRES   REMARKS
NEW YORK CITY  CLOUDY    73  67  81 MISG      29.58S
PHILADELPHIA   MOSUNNY   78  67  68 W15       29.59S
PITTSBURGH     CLOUDY    65  59  81 W9        29.73S
ROANOKE        MOSUNNY   76  55  48 NW24G35   29.80R
RICHMOND       MOSUNNY   85  62  46 W14G22    29.69R
RALEIGH        MOSUNNY   80  66  62 W10       29.81R

$$

ANZ530>537-281500-
MARINE OBSERVATIONS

STATION/POSITION TIME  TEMP    WIND        PRES
                       AIR SEA DIR/SP/G
                 (UTC) (F)     (DEG/KT/KT) (MB)
THOMAS PT LIGHT  1400   79 79  290/ 15/ 17 1003.7R
BALT KEY BRIDGE  1400   79     260/ 21/ 26 1002.8R
COVE POINT       1400   81     290/  8/  9 1003.3R
LEWISETTA        1400   82 79  280/ 11/ 15 1003.6S
SOLOMONS ISLAND  1400      80                N/A
PINEY POINT      1400          290/ 12/ 15   N/A

$$




USA.gov is the U.S. government's official web portal to all federal, state and local government web resources and services.